TimeEDT,TemperatureF,Dew PointF,Humidity,Sea Level PressureIn,VisibilityMPH,Wind Direction,Wind SpeedMPH,Gust SpeedMPH,PrecipitationIn,Events,Conditions,WindDirDegrees,DateUTC
12:54 AM,50.0,44.1,80,30.17,10.0,North,5.8,-,N/A,,Clear,350,2013-08-15 04:54:00
1:54 AM,48.9,44.1,83,30.19,10.0,SSE,3.5,-,N/A,,Clear,160,2013-08-15 05:54:00
2:54 AM,50.0,44.1,80,30.19,10.0,Calm,Calm,-,N/A,,Clear,0,2013-08-15 06:54:00
3:54 AM,46.9,43.0,86,30.18,10.0,Calm,Calm,-,N/A,,Clear,0,2013-08-15 07:54:00
4:54 AM,46.0,43.0,89,30.19,10.0,WSW,5.8,-,N/A,,Clear,240,2013-08-15 08:54:00
5:54 AM,46.0,44.1,93,30.19,10.0,SW,4.6,-,N/A,,Clear,230,2013-08-15 09:54:00
6:54 AM,45.0,44.1,97,30.21,10.0,WSW,4.6,-,N/A,,Clear,240,2013-08-15 10:54:00
7:54 AM,51.1,46.9,86,30.21,10.0,Calm,Calm,-,N/A,,Clear,0,2013-08-15 11:54:00
8:54 AM,54.0,48.0,80,30.22,10.0,Calm,Calm,-,N/A,,Clear,0,2013-08-15 12:54:00
9:54 AM,55.9,48.9,77,30.23,10.0,Calm,Calm,-,N/A,,Clear,0,2013-08-15 13:54:00
10:36 AM,-9999,-9999,N/A,30.23,-9999.0,West,3.5,-,N/A,,Mostly Cloudy,280,2013-08-15 14:36:00
10:54 AM,-9999,-9999,N/A,30.23,-9999.0,WNW,3.5,-,N/A,,Mostly Cloudy,290,2013-08-15 14:54:00
11:54 AM,-9999,-9999,N/A,30.22,-9999.0,Variable,4.6,-,N/A,,Mostly Cloudy,0,2013-08-15 15:54:00
12:54 PM,63.0,46.0,54,30.21,10.0,North,-9999.0,-,N/A,,Unknown,0,2013-08-15 16:54:00
1:54 PM,63.0,44.1,50,30.20,10.0,Calm,Calm,-,N/A,,Mostly Cloudy,0,2013-08-15 17:54:00
2:54 PM,64.9,45.0,48,30.17,10.0,Calm,Calm,-,N/A,,Partly Cloudy,0,2013-08-15 18:54:00
3:54 PM,66.0,45.0,47,30.15,10.0,Calm,Calm,-,N/A,,Clear,0,2013-08-15 19:54:00
4:54 PM,66.9,46.0,47,30.14,10.0,Variable,5.8,-,N/A,,Partly Cloudy,0,2013-08-15 20:54:00
5:54 PM,66.9,44.1,44,30.15,10.0,West,4.6,-,N/A,,Scattered Clouds,260,2013-08-15 21:54:00
6:54 PM,66.0,43.0,43,30.15,10.0,Calm,Calm,-,N/A,,Clear,0,2013-08-15 22:54:00
7:54 PM,62.1,46.0,56,30.16,10.0,Calm,Calm,-,N/A,,Clear,0,2013-08-15 23:54:00
8:54 PM,60.1,45.0,57,30.17,10.0,Calm,Calm,-,N/A,,Clear,0,2013-08-16 00:54:00
9:54 PM,59.0,45.0,60,30.18,10.0,Calm,Calm,-,N/A,,Clear,0,2013-08-16 01:54:00
10:54 PM,54.0,46.0,75,30.19,10.0,Calm,Calm,-,N/A,,Clear,0,2013-08-16 02:54:00
11:54 PM,57.9,46.0,65,30.19,10.0,Calm,Calm,-,N/A,,Clear,0,2013-08-16 03:54:00